Time,TemperatureF,DewpointF,PressureIn,WindDirection,WindDirectionDegrees,WindSpeedMPH,WindSpeedGustMPH,Humidity,HourlyPrecipIn,Conditions,Clouds,dailyrainin,SolarRadiationWatts/m^2,SoftwareType,DateUTC
2013-03-14 00:00:00,49.6,45.0,29.74,East,82,8.1,0.0,84,0.00,CLR,CLR,0.00,0.0,WeatherDisplay:10.37,2013-03-14 07:00:00,
2013-03-14 00:06:00,49.6,45.0,29.74,East,82,8.1,0.0,84,0.00,CLR,CLR,0.00,0.0,WeatherDisplay:10.37,2013-03-14 07:06:00,
2013-03-14 00:11:00,49.6,45.0,29.74,East,82,8.1,0.0,84,0.00,CLR,CLR,0.00,0.0,WeatherDisplay:10.37,2013-03-14 07:11:00,
2013-03-14 00:16:00,49.6,45.0,29.74,East,82,8.1,0.0,84,0.00,CLR,CLR,0.00,0.0,WeatherDisplay:10.37,2013-03-14 07:16:00,
2013-03-14 00:21:00,49.6,45.0,29.74,East,82,8.1,0.0,84,0.00,CLR,CLR,0.00,0.0,WeatherDisplay:10.37,2013-03-14 07:21:00,
2013-03-14 00:26:00,49.6,45.0,29.74,East,82,8.1,0.0,84,0.00,CLR,CLR,0.00,0.0,WeatherDisplay:10.37,2013-03-14 07:26:00,
2013-03-14 00:31:00,49.6,45.0,29.77,East,82,8.1,0.0,84,0.00,CLR,CLR,0.00,0.0,WeatherDisplay:10.37,2013-03-14 07:31:00,
2013-03-14 00:37:00,49.6,45.0,29.77,East,82,8.1,0.0,84,0.00,CLR,CLR,0.00,0.0,WeatherDisplay:10.37,2013-03-14 07:37:00,
2013-03-14 00:42:00,49.6,45.0,29.77,ENE,76,8.1,0.0,84,0.00,CLR,CLR,0.00,0.0,WeatherDisplay:10.37,2013-03-14 07:42:00,
2013-03-14 00:47:00,49.6,45.0,29.74,ENE,76,8.1,0.0,84,0.00,CLR,CLR,0.00,0.0,WeatherDisplay:10.37,2013-03-14 07:47:00,
2013-03-14 00:52:00,49.6,45.0,29.74,North,0,8.1,0.0,84,0.00,CLR,CLR,0.00,0.0,WeatherDisplay:10.37,2013-03-14 07:52:00,
2013-03-14 00:57:00,49.6,45.0,29.74,North,0,8.1,0.0,84,0.00,CLR,CLR,0.00,0.0,WeatherDisplay:10.37,2013-03-14 07:57:00,
2013-03-14 01:02:00,49.6,45.0,29.74,North,0,8.1,0.0,84,0.00,CLR,CLR,0.00,0.0,WeatherDisplay:10.37,2013-03-14 08:02:00,
2013-03-14 01:07:00,49.6,45.0,29.74,North,0,8.1,0.0,84,0.00,CLR,CLR,0.00,0.0,WeatherDisplay:10.37,2013-03-14 08:07:00,
2013-03-14 01:12:00,49.6,45.0,29.74,North,0,8.1,0.0,84,0.00,CLR,CLR,0.00,0.0,WeatherDisplay:10.37,2013-03-14 08:12:00,
2013-03-14 01:17:00,49.6,45.0,29.74,East,98,8.1,0.0,84,0.00,CLR,CLR,0.00,0.0,WeatherDisplay:10.37,2013-03-14 08:17:00,
2013-03-14 01:22:00,49.6,45.0,29.74,East,98,8.1,0.0,84,0.00,CLR,CLR,0.00,0.0,WeatherDisplay:10.37,2013-03-14 08:22:00,
2013-03-14 01:27:00,49.6,45.0,29.74,East,98,8.1,0.0,84,0.00,CLR,CLR,0.00,0.0,WeatherDisplay:10.37,2013-03-14 08:27:00,
2013-03-14 01:32:00,49.6,45.0,29.74,East,98,8.1,0.0,84,0.00,CLR,CLR,0.00,0.0,WeatherDisplay:10.37,2013-03-14 08:32:00,
2013-03-14 01:37:00,49.6,45.0,29.74,East,98,8.1,0.0,84,0.00,CLR,CLR,0.00,0.0,WeatherDisplay:10.37,2013-03-14 08:37:00,
2013-03-14 01:42:00,49.6,45.0,29.74,East,98,8.1,0.0,84,0.00,CLR,CLR,0.00,0.0,WeatherDisplay:10.37,2013-03-14 08:42:00,
2013-03-14 01:47:00,49.6,45.0,29.74,East,98,8.1,0.0,84,0.00,CLR,CLR,0.00,0.0,WeatherDisplay:10.37,2013-03-14 08:47:00,
2013-03-14 01:52:00,49.6,45.0,29.74,East,98,8.1,0.0,84,0.00,CLR,CLR,0.00,0.0,WeatherDisplay:10.37,2013-03-14 08:52:00,
2013-03-14 01:57:00,49.6,45.0,29.74,East,98,8.1,0.0,84,0.00,CLR,CLR,0.00,0.0,WeatherDisplay:10.37,2013-03-14 08:57:00,
2013-03-14 02:02:00,49.6,45.0,29.74,East,98,8.1,0.0,84,0.00,CLR,CLR,0.00,0.0,WeatherDisplay:10.37,2013-03-14 09:02:00,
2013-03-14 02:07:00,49.6,45.0,29.74,East,98,8.1,0.0,84,0.00,CLR,CLR,0.00,0.0,WeatherDisplay:10.37,2013-03-14 09:07:00,
2013-03-14 02:12:00,49.6,45.0,29.74,East,98,8.1,0.0,84,0.00,CLR,CLR,0.00,0.0,WeatherDisplay:10.37,2013-03-14 09:12:00,
2013-03-14 02:17:00,49.6,45.0,29.74,East,98,8.1,0.0,84,0.00,CLR,CLR,0.00,0.0,WeatherDisplay:10.37,2013-03-14 09:17:00,
2013-03-14 02:22:00,49.6,45.0,29.74,East,95,8.1,8.1,84,0.00,CLR,CLR,0.00,0.0,WeatherDisplay:10.37,2013-03-14 09:22:00,
2013-03-14 02:27:00,49.6,45.0,29.74,East,90,8.1,8.1,84,0.00,CLR,CLR,0.00,0.0,WeatherDisplay:10.37,2013-03-14 09:27:00,
2013-03-14 02:32:00,49.6,45.0,29.74,East,90,8.1,8.1,84,0.00,CLR,CLR,0.00,0.0,WeatherDisplay:10.37,2013-03-14 09:32:00,
2013-03-14 02:37:00,49.6,45.0,29.74,East,90,8.1,8.1,84,0.00,CLR,CLR,0.00,0.0,WeatherDisplay:10.37,2013-03-14 09:37:00,
2013-03-14 02:42:00,48.6,43.6,29.74,East,86,8.1,8.1,83,0.00,CLR,CLR,0.00,0.0,WeatherDisplay:10.37,2013-03-14 09:42:00,
2013-03-14 02:47:00,48.6,43.6,29.56,East,86,8.1,8.1,83,0.00,CLR,CLR,0.00,0.0,WeatherDisplay:10.37,2013-03-14 09:47:00,
2013-03-14 02:52:00,48.6,43.6,29.74,East,86,8.1,8.1,83,0.00,CLR,CLR,0.00,0.0,WeatherDisplay:10.37,2013-03-14 09:52:00,
2013-03-14 02:57:00,48.6,43.6,29.74,East,86,8.1,8.1,83,0.00,CLR,CLR,0.00,0.0,WeatherDisplay:10.37,2013-03-14 09:57:00,
2013-03-14 03:02:00,48.6,43.6,29.74,East,86,8.1,8.1,83,0.00,CLR,CLR,0.00,0.0,WeatherDisplay:10.37,2013-03-14 10:02:00,
2013-03-14 03:07:00,48.7,43.8,29.74,East,86,8.1,8.1,83,0.00,CLR,CLR,0.00,0.0,WeatherDisplay:10.37,2013-03-14 10:07:00,
2013-03-14 03:12:00,48.7,43.8,29.74,East,86,8.1,8.1,83,0.00,CLR,CLR,0.00,0.0,WeatherDisplay:10.37,2013-03-14 10:12:00,
2013-03-14 03:18:00,48.7,43.8,29.74,East,86,8.1,8.1,83,0.00,CLR,CLR,0.00,0.0,WeatherDisplay:10.37,2013-03-14 10:18:00,
2013-03-14 03:23:00,48.7,43.8,29.74,East,86,8.1,8.1,83,0.00,CLR,CLR,0.00,0.0,WeatherDisplay:10.37,2013-03-14 10:23:00,
2013-03-14 03:28:00,48.7,43.8,29.74,East,86,8.1,8.1,83,0.00,CLR,CLR,0.00,0.0,WeatherDisplay:10.37,2013-03-14 10:28:00,
2013-03-14 03:33:00,48.7,43.8,29.71,East,86,8.1,8.1,83,0.00,CLR,CLR,0.00,0.0,WeatherDisplay:10.37,2013-03-14 10:33:00,
2013-03-14 03:38:00,48.7,43.8,29.71,East,86,8.1,8.1,83,0.00,CLR,CLR,0.00,0.0,WeatherDisplay:10.37,2013-03-14 10:38:00,
2013-03-14 03:43:00,48.7,43.8,29.71,East,86,8.1,8.1,83,0.00,CLR,CLR,0.00,0.0,WeatherDisplay:10.37,2013-03-14 10:43:00,
2013-03-14 03:48:00,48.7,43.8,29.71,ENE,77,8.1,0.0,83,0.00,CLR,CLR,0.00,0.0,WeatherDisplay:10.37,2013-03-14 10:48:00,
2013-03-14 03:53:00,48.7,43.8,29.71,ENE,77,8.1,0.0,83,0.00,CLR,CLR,0.00,0.0,WeatherDisplay:10.37,2013-03-14 10:53:00,
2013-03-14 03:58:00,48.7,43.8,29.74,North,0,8.1,0.0,83,0.00,CLR,CLR,0.00,0.0,WeatherDisplay:10.37,2013-03-14 10:58:00,
2013-03-14 04:03:00,48.7,43.8,29.74,North,0,8.1,0.0,83,0.00,CLR,CLR,0.00,0.0,WeatherDisplay:10.37,2013-03-14 11:03:00,
2013-03-14 04:09:00,48.7,43.8,29.74,North,0,8.1,0.0,83,0.00,CLR,CLR,0.00,0.0,WeatherDisplay:10.37,2013-03-14 11:09:00,
2013-03-14 04:14:00,48.7,43.8,29.74,North,0,8.1,0.0,83,0.00,CLR,CLR,0.00,0.0,WeatherDisplay:10.37,2013-03-14 11:14:00,
2013-03-14 04:19:00,48.7,43.8,29.74,North,0,8.1,0.0,83,0.00,CLR,CLR,0.00,0.0,WeatherDisplay:10.37,2013-03-14 11:19:00,
2013-03-14 04:24:00,48.7,43.8,29.74,North,0,8.1,0.0,83,0.00,CLR,CLR,0.00,0.0,WeatherDisplay:10.37,2013-03-14 11:24:00,
2013-03-14 04:29:00,48.7,43.8,29.74,SE,144,8.1,0.0,83,0.00,CLR,CLR,0.00,0.0,WeatherDisplay:10.37,2013-03-14 11:29:00,
2013-03-14 04:34:00,48.7,43.8,29.74,ENE,66,8.1,8.1,83,0.00,CLR,CLR,0.00,0.0,WeatherDisplay:10.37,2013-03-14 11:34:00,
2013-03-14 04:39:00,48.7,43.8,29.74,North,0,8.1,8.1,83,0.00,CLR,CLR,0.00,0.0,WeatherDisplay:10.37,2013-03-14 11:39:00,
2013-03-14 04:44:00,48.7,43.8,29.71,North,0,8.1,8.1,83,0.00,CLR,CLR,0.00,0.0,WeatherDisplay:10.37,2013-03-14 11:44:00,
2013-03-14 04:49:00,48.6,43.3,29.71,North,0,8.1,8.1,82,0.00,CLR,CLR,0.00,0.0,WeatherDisplay:10.37,2013-03-14 11:49:00,
2013-03-14 04:55:00,48.6,43.3,29.71,North,0,8.1,8.1,82,0.00,CLR,CLR,0.00,0.0,WeatherDisplay:10.37,2013-03-14 11:55:00,
2013-03-14 05:00:00,48.6,43.3,29.71,North,0,8.1,8.1,82,0.00,CLR,CLR,0.00,0.0,WeatherDisplay:10.37,2013-03-14 12:00:00,
2013-03-14 05:05:00,32.0,-40.6,29.71,South,172,8.1,0.0,3,0.00,CLR,CLR,0.00,0.0,WeatherDisplay:10.37,2013-03-14 12:05:00,
2013-03-14 05:10:00,32.0,-40.6,29.71,South,172,8.1,0.0,3,0.00,CLR,CLR,0.00,0.0,WeatherDisplay:10.37,2013-03-14 12:10:00,
2013-03-14 05:15:00,32.0,-40.6,29.71,South,172,8.1,0.0,3,0.00,CLR,CLR,0.00,0.0,WeatherDisplay:10.37,2013-03-14 12:15:00,
2013-03-14 05:20:00,32.0,-40.6,29.71,South,172,8.1,0.0,3,0.00,CLR,CLR,0.04,0.0,WeatherDisplay:10.37,2013-03-14 12:20:00,
2013-03-14 05:25:00,32.0,-40.6,29.71,South,172,8.1,0.0,3,0.00,CLR,CLR,0.04,0.0,WeatherDisplay:10.37,2013-03-14 12:25:00,
2013-03-14 05:30:00,32.0,-40.6,29.71,ENE,58,8.1,0.0,3,0.00,CLR,CLR,0.04,0.0,WeatherDisplay:10.37,2013-03-14 12:30:00,
2013-03-14 05:35:00,32.0,-40.6,29.71,ENE,58,8.1,0.0,3,0.00,CLR,CLR,0.04,0.0,WeatherDisplay:10.37,2013-03-14 12:35:00,
2013-03-14 05:40:00,32.0,-40.6,29.71,ENE,58,8.1,0.0,3,0.00,CLR,CLR,0.04,0.0,WeatherDisplay:10.37,2013-03-14 12:40:00,
2013-03-14 05:46:00,32.0,-40.6,29.71,ENE,58,8.1,0.0,3,0.00,CLR,CLR,0.04,0.0,WeatherDisplay:10.37,2013-03-14 12:46:00,
2013-03-14 05:51:00,32.0,-40.6,29.71,ENE,58,8.1,0.0,3,0.00,CLR,CLR,0.04,0.0,WeatherDisplay:10.37,2013-03-14 12:51:00,
2013-03-14 05:56:00,32.0,-40.6,29.71,ENE,58,8.1,0.0,3,0.00,CLR,CLR,0.04,0.0,WeatherDisplay:10.37,2013-03-14 12:56:00,
2013-03-14 06:01:00,48.4,43.1,29.71,ENE,58,8.1,0.0,82,0.00,CLR,CLR,0.04,0.0,WeatherDisplay:10.37,2013-03-14 13:01:00,
2013-03-14 06:06:00,48.4,43.1,29.71,ENE,58,8.1,0.0,82,0.00,CLR,CLR,0.04,0.0,WeatherDisplay:10.37,2013-03-14 13:06:00,
2013-03-14 06:11:00,48.2,43.3,29.71,ENE,58,8.1,0.0,83,0.00,CLR,CLR,0.04,0.0,WeatherDisplay:10.37,2013-03-14 13:11:00,
2013-03-14 06:16:00,48.2,43.3,29.71,ENE,58,8.1,0.0,83,0.00,CLR,CLR,0.04,0.0,WeatherDisplay:10.37,2013-03-14 13:16:00,
2013-03-14 06:21:00,32.0,-40.6,29.71,North,0,8.1,0.0,3,0.00,CLR,CLR,0.04,0.0,WeatherDisplay:10.37,2013-03-14 13:21:00,
2013-03-14 06:26:00,32.0,-40.6,29.71,North,0,8.1,0.0,3,0.00,CLR,CLR,0.04,0.0,WeatherDisplay:10.37,2013-03-14 13:26:00,
2013-03-14 06:31:00,32.0,-40.6,29.71,ESE,110,8.1,0.0,3,0.00,CLR,CLR,0.04,0.0,WeatherDisplay:10.37,2013-03-14 13:31:00,
2013-03-14 06:36:00,32.0,-40.6,29.71,ESE,110,8.1,0.0,3,0.00,CLR,CLR,0.04,0.0,WeatherDisplay:10.37,2013-03-14 13:36:00,
2013-03-14 06:41:00,32.0,-40.6,29.71,ESE,110,8.1,0.0,3,0.00,CLR,CLR,0.04,0.0,WeatherDisplay:10.37,2013-03-14 13:41:00,
2013-03-14 06:46:00,32.0,-40.6,29.71,ESE,110,8.1,0.0,3,0.00,CLR,CLR,0.04,0.0,WeatherDisplay:10.37,2013-03-14 13:46:00,
2013-03-14 06:51:00,32.0,-40.6,29.71,ESE,110,8.1,0.0,3,0.00,CLR,CLR,0.04,0.0,WeatherDisplay:10.37,2013-03-14 13:51:00,
2013-03-14 06:56:00,32.0,-40.6,29.71,ESE,110,8.1,0.0,3,0.00,CLR,CLR,0.04,0.0,WeatherDisplay:10.37,2013-03-14 13:56:00,
2013-03-14 07:01:00,32.0,-40.6,29.71,ESE,110,8.1,0.0,3,0.00,CLR,CLR,0.04,0.0,WeatherDisplay:10.37,2013-03-14 14:01:00,
2013-03-14 07:06:00,48.2,43.0,29.71,ESE,110,8.1,0.0,82,0.00,CLR,CLR,0.04,0.0,WeatherDisplay:10.37,2013-03-14 14:06:00,
2013-03-14 07:11:00,48.2,43.0,29.71,ESE,110,8.1,0.0,82,0.00,CLR,CLR,0.04,0.0,WeatherDisplay:10.37,2013-03-14 14:11:00,
2013-03-14 07:17:00,48.2,43.0,29.71,ESE,110,8.1,0.0,82,0.00,CLR,CLR,0.04,0.0,WeatherDisplay:10.37,2013-03-14 14:17:00,
2013-03-14 07:22:00,48.2,43.0,29.71,ENE,75,8.1,8.1,82,0.00,CLR,CLR,0.04,0.0,WeatherDisplay:10.37,2013-03-14 14:22:00,
2013-03-14 07:27:00,48.2,43.3,29.71,ENE,75,8.1,8.1,83,0.00,CLR,CLR,0.04,0.0,WeatherDisplay:10.37,2013-03-14 14:27:00,
2013-03-14 07:32:00,48.2,43.3,29.71,ENE,75,8.1,8.1,83,0.00,CLR,CLR,0.04,0.0,WeatherDisplay:10.37,2013-03-14 14:32:00,
2013-03-14 07:37:00,48.2,43.3,29.71,ENE,75,8.1,8.1,83,0.00,CLR,CLR,0.04,0.0,WeatherDisplay:10.37,2013-03-14 14:37:00,
2013-03-14 07:42:00,48.2,43.3,29.71,ENE,75,8.1,8.1,83,0.00,CLR,CLR,0.04,0.0,WeatherDisplay:10.37,2013-03-14 14:42:00,
2013-03-14 07:47:00,48.2,43.3,29.71,ENE,75,8.1,8.1,83,0.00,CLR,CLR,0.04,0.0,WeatherDisplay:10.37,2013-03-14 14:47:00,
2013-03-14 07:53:00,48.2,43.3,29.71,ENE,75,8.1,8.1,83,0.00,CLR,CLR,0.04,0.0,WeatherDisplay:10.37,2013-03-14 14:53:00,
2013-03-14 07:58:00,48.2,43.3,29.71,ENE,75,8.1,8.1,83,0.00,CLR,CLR,0.04,0.0,WeatherDisplay:10.37,2013-03-14 14:58:00,
2013-03-14 08:03:00,48.2,43.3,29.71,ESE,107,8.1,8.1,83,0.00,CLR,CLR,0.04,0.0,WeatherDisplay:10.37,2013-03-14 15:03:00,
2013-03-14 08:08:00,48.2,43.3,29.71,ESE,107,8.1,8.1,83,0.00,CLR,CLR,0.04,0.0,WeatherDisplay:10.37,2013-03-14 15:08:00,
2013-03-14 08:13:00,48.2,43.3,29.71,North,0,8.1,8.1,83,0.00,CLR,CLR,0.04,0.0,WeatherDisplay:10.37,2013-03-14 15:13:00,
2013-03-14 08:18:00,48.2,43.3,29.74,North,0,8.1,8.1,83,0.00,CLR,CLR,0.04,0.0,WeatherDisplay:10.37,2013-03-14 15:18:00,
2013-03-14 08:23:00,48.2,43.3,29.74,NE,45,8.1,8.1,83,0.00,CLR,CLR,0.04,0.0,WeatherDisplay:10.37,2013-03-14 15:23:00,
2013-03-14 08:28:00,48.2,43.3,29.74,NE,45,8.1,8.1,83,0.00,CLR,CLR,0.04,0.0,WeatherDisplay:10.37,2013-03-14 15:28:00,
2013-03-14 08:34:00,48.2,43.3,29.74,NE,45,8.1,8.1,83,0.00,CLR,CLR,0.04,0.0,WeatherDisplay:10.37,2013-03-14 15:34:00,
2013-03-14 08:39:00,48.2,43.3,29.74,NE,45,8.1,8.1,83,0.00,CLR,CLR,0.04,0.0,WeatherDisplay:10.37,2013-03-14 15:39:00,
2013-03-14 08:44:00,48.4,43.5,29.74,NE,45,8.1,8.1,83,0.00,CLR,CLR,0.04,0.0,WeatherDisplay:10.37,2013-03-14 15:44:00,
2013-03-14 08:49:00,48.4,43.5,29.74,East,83,8.1,0.0,83,0.00,CLR,CLR,0.04,0.0,WeatherDisplay:10.37,2013-03-14 15:49:00,
2013-03-14 08:54:00,48.4,43.5,29.74,East,83,8.1,0.0,83,0.00,CLR,CLR,0.04,0.0,WeatherDisplay:10.37,2013-03-14 15:54:00,
2013-03-14 09:00:00,48.4,43.5,29.74,East,83,8.1,0.0,83,0.00,CLR,CLR,0.04,0.0,WeatherDisplay:10.37,2013-03-14 16:00:00,
2013-03-14 09:05:00,48.4,43.5,29.74,East,83,8.1,0.0,83,0.00,CLR,CLR,0.04,0.0,WeatherDisplay:10.37,2013-03-14 16:05:00,
2013-03-14 09:10:00,48.4,43.5,29.74,East,83,8.1,0.0,83,0.00,CLR,CLR,0.04,0.0,WeatherDisplay:10.37,2013-03-14 16:10:00,
2013-03-14 09:15:00,48.4,43.5,29.71,East,83,8.1,0.0,83,0.00,CLR,CLR,0.04,0.0,WeatherDisplay:10.37,2013-03-14 16:15:00,
2013-03-14 09:20:00,48.7,43.8,29.71,East,83,8.1,0.0,83,0.00,CLR,CLR,0.04,0.0,WeatherDisplay:10.37,2013-03-14 16:20:00,
2013-03-14 09:25:00,48.7,43.8,29.71,East,83,8.1,0.0,83,0.00,CLR,CLR,0.04,0.0,WeatherDisplay:10.37,2013-03-14 16:25:00,
2013-03-14 09:30:00,48.7,43.8,29.71,East,83,8.1,0.0,83,0.00,CLR,CLR,0.04,0.0,WeatherDisplay:10.37,2013-03-14 16:30:00,
2013-03-14 09:35:00,48.7,43.8,29.71,East,83,8.1,0.0,83,0.00,CLR,CLR,0.04,0.0,WeatherDisplay:10.37,2013-03-14 16:35:00,
2013-03-14 09:40:00,48.7,43.8,29.71,East,83,8.1,0.0,83,0.00,CLR,CLR,0.04,0.0,WeatherDisplay:10.37,2013-03-14 16:40:00,
2013-03-14 09:45:00,48.7,43.8,29.71,East,83,8.1,0.0,83,0.00,CLR,CLR,0.04,0.0,WeatherDisplay:10.37,2013-03-14 16:45:00,
2013-03-14 09:50:00,48.7,43.8,29.71,East,83,8.1,0.0,83,0.00,CLR,CLR,0.04,0.0,WeatherDisplay:10.37,2013-03-14 16:50:00,
2013-03-14 09:55:00,48.7,43.8,29.71,East,83,8.1,0.0,83,0.00,CLR,CLR,0.04,0.0,WeatherDisplay:10.37,2013-03-14 16:55:00,
2013-03-14 10:01:00,49.6,44.7,29.71,East,83,8.1,0.0,83,0.00,CLR,CLR,0.04,0.0,WeatherDisplay:10.37,2013-03-14 17:01:00,
2013-03-14 10:06:00,49.6,44.7,29.71,East,84,8.1,8.1,83,0.00,CLR,CLR,0.04,0.0,WeatherDisplay:10.37,2013-03-14 17:06:00,
2013-03-14 10:11:00,49.6,44.7,29.71,East,84,8.1,8.1,83,0.00,CLR,CLR,0.04,0.0,WeatherDisplay:10.37,2013-03-14 17:11:00,
2013-03-14 10:16:00,49.6,44.7,29.71,East,84,8.1,8.1,83,0.00,CLR,CLR,0.04,0.0,WeatherDisplay:10.37,2013-03-14 17:16:00,
2013-03-14 10:21:00,49.6,44.7,29.71,East,84,8.1,8.1,83,0.00,CLR,CLR,0.04,0.0,WeatherDisplay:10.37,2013-03-14 17:21:00,
2013-03-14 10:26:00,49.6,44.7,29.71,East,84,8.1,8.1,83,0.00,CLR,CLR,0.04,0.0,WeatherDisplay:10.37,2013-03-14 17:26:00,
2013-03-14 10:31:00,50.0,44.7,29.71,East,89,8.1,8.1,82,0.00,CLR,CLR,0.04,0.0,WeatherDisplay:10.37,2013-03-14 17:31:00,
2013-03-14 10:36:00,50.0,44.7,29.71,East,89,8.1,8.1,82,0.00,CLR,CLR,0.04,0.0,WeatherDisplay:10.37,2013-03-14 17:36:00,
2013-03-14 10:42:00,50.0,44.7,29.71,East,89,8.1,8.1,82,0.00,CLR,CLR,0.04,0.0,WeatherDisplay:10.37,2013-03-14 17:42:00,
2013-03-14 10:47:00,50.0,44.7,29.71,East,89,8.1,8.1,82,0.00,CLR,CLR,0.04,0.0,WeatherDisplay:10.37,2013-03-14 17:47:00,
2013-03-14 10:52:00,50.0,44.7,29.71,East,89,8.1,8.1,82,0.00,CLR,CLR,0.04,0.0,WeatherDisplay:10.37,2013-03-14 17:52:00,
2013-03-14 10:57:00,50.0,44.7,29.71,East,89,8.1,8.1,82,0.00,CLR,CLR,0.04,0.0,WeatherDisplay:10.37,2013-03-14 17:57:00,
2013-03-14 11:02:00,50.0,44.7,29.71,ENE,77,8.1,8.1,82,0.00,CLR,CLR,0.04,0.0,WeatherDisplay:10.37,2013-03-14 18:02:00,
2013-03-14 11:07:00,50.0,44.7,29.71,East,86,8.1,8.1,82,0.00,CLR,CLR,0.04,0.0,WeatherDisplay:10.37,2013-03-14 18:07:00,
2013-03-14 11:12:00,50.0,44.7,29.71,East,86,8.1,8.1,82,0.00,CLR,CLR,0.04,0.0,WeatherDisplay:10.37,2013-03-14 18:12:00,
2013-03-14 11:17:00,50.0,44.7,29.71,ENE,58,8.1,8.1,82,0.00,CLR,CLR,0.04,0.0,WeatherDisplay:10.37,2013-03-14 18:17:00,
2013-03-14 11:22:00,50.0,44.7,29.71,ENE,57,8.1,8.1,82,0.00,CLR,CLR,0.04,0.0,WeatherDisplay:10.37,2013-03-14 18:22:00,
2013-03-14 11:27:00,50.0,44.7,29.71,ESE,116,8.1,8.1,82,0.00,CLR,CLR,0.04,0.0,WeatherDisplay:10.37,2013-03-14 18:27:00,
2013-03-14 11:32:00,50.0,44.7,29.71,ESE,116,8.1,8.1,82,0.00,CLR,CLR,0.04,0.0,WeatherDisplay:10.37,2013-03-14 18:32:00,
2013-03-14 11:37:00,50.0,44.7,29.71,ESE,116,8.1,8.1,82,0.00,CLR,CLR,0.04,0.0,WeatherDisplay:10.37,2013-03-14 18:37:00,
2013-03-14 11:42:00,50.0,44.7,29.71,ESE,116,8.1,8.1,82,0.00,CLR,CLR,0.04,0.0,WeatherDisplay:10.37,2013-03-14 18:42:00,
2013-03-14 11:47:00,50.0,44.7,29.71,ESE,116,8.1,8.1,82,0.00,CLR,CLR,0.04,0.0,WeatherDisplay:10.37,2013-03-14 18:47:00,
2013-03-14 11:52:00,50.0,44.7,29.71,ESE,116,8.1,8.1,82,0.00,CLR,CLR,0.04,0.0,WeatherDisplay:10.37,2013-03-14 18:52:00,
2013-03-14 11:57:00,50.0,44.7,29.71,ESE,116,8.1,8.1,82,0.00,CLR,CLR,0.04,0.0,WeatherDisplay:10.37,2013-03-14 18:57:00,
2013-03-14 12:03:00,50.0,44.7,29.71,ESE,116,8.1,8.1,82,0.00,CLR,CLR,0.04,0.0,WeatherDisplay:10.37,2013-03-14 19:03:00,
2013-03-14 12:08:00,50.0,44.7,29.71,ESE,116,8.1,8.1,82,0.00,CLR,CLR,0.04,0.0,WeatherDisplay:10.37,2013-03-14 19:08:00,
2013-03-14 12:13:00,50.0,44.7,29.71,SSE,148,8.1,8.1,82,0.00,CLR,CLR,0.04,0.0,WeatherDisplay:10.37,2013-03-14 19:13:00,
2013-03-14 12:18:00,50.0,44.7,29.71,SSE,148,8.1,8.1,82,0.00,CLR,CLR,0.04,0.0,WeatherDisplay:10.37,2013-03-14 19:18:00,
2013-03-14 12:23:00,50.0,44.7,29.71,East,79,8.1,8.1,82,0.00,CLR,CLR,0.04,0.0,WeatherDisplay:10.37,2013-03-14 19:23:00,
2013-03-14 12:28:00,50.0,44.7,29.71,East,89,8.1,8.1,82,0.00,CLR,CLR,0.04,0.0,WeatherDisplay:10.37,2013-03-14 19:28:00,
2013-03-14 12:33:00,50.0,44.7,29.71,East,89,8.1,8.1,82,0.00,CLR,CLR,0.04,0.0,WeatherDisplay:10.37,2013-03-14 19:33:00,
2013-03-14 12:39:00,50.0,44.7,29.71,East,89,8.1,8.1,82,0.00,CLR,CLR,0.04,0.0,WeatherDisplay:10.37,2013-03-14 19:39:00,
2013-03-14 12:44:00,50.0,44.7,29.71,East,89,8.1,8.1,82,0.00,CLR,CLR,0.04,0.0,WeatherDisplay:10.37,2013-03-14 19:44:00,
2013-03-14 12:49:00,50.0,44.7,29.71,East,89,8.1,8.1,82,0.00,CLR,CLR,0.04,0.0,WeatherDisplay:10.37,2013-03-14 19:49:00,
2013-03-14 12:54:00,49.8,43.9,29.71,East,89,8.1,8.1,80,0.00,CLR,CLR,0.04,0.0,WeatherDisplay:10.37,2013-03-14 19:54:00,
2013-03-14 12:59:00,49.8,43.9,29.71,East,89,8.1,8.1,80,0.00,CLR,CLR,0.04,0.0,WeatherDisplay:10.37,2013-03-14 19:59:00,
2013-03-14 13:04:00,49.8,43.9,29.71,ENE,76,8.1,8.1,80,0.00,CLR,CLR,0.04,0.0,WeatherDisplay:10.37,2013-03-14 20:04:00,
2013-03-14 13:09:00,49.8,43.9,29.71,ENE,76,8.1,8.1,80,0.00,CLR,CLR,0.04,0.0,WeatherDisplay:10.37,2013-03-14 20:09:00,
2013-03-14 13:14:00,49.8,43.9,29.71,ENE,76,8.1,8.1,80,0.00,CLR,CLR,0.04,0.0,WeatherDisplay:10.37,2013-03-14 20:14:00,
2013-03-14 13:19:00,49.8,43.9,29.71,ENE,76,8.1,8.1,80,0.00,CLR,CLR,0.04,0.0,WeatherDisplay:10.37,2013-03-14 20:19:00,
2013-03-14 13:24:00,49.8,43.9,29.71,ENE,76,8.1,8.1,80,0.00,CLR,CLR,0.04,0.0,WeatherDisplay:10.37,2013-03-14 20:24:00,
2013-03-14 13:29:00,50.2,44.2,29.71,ENE,76,8.1,8.1,80,0.00,CLR,CLR,0.04,0.0,WeatherDisplay:10.37,2013-03-14 20:29:00,
2013-03-14 13:34:00,50.2,44.2,29.71,ENE,76,8.1,8.1,80,0.00,CLR,CLR,0.04,0.0,WeatherDisplay:10.37,2013-03-14 20:34:00,
2013-03-14 13:39:00,50.0,44.1,29.71,ENE,76,8.1,8.1,80,0.00,CLR,CLR,0.04,0.0,WeatherDisplay:10.37,2013-03-14 20:39:00,
2013-03-14 13:44:00,50.0,44.1,29.74,ENE,76,8.1,8.1,80,0.00,CLR,CLR,0.04,0.0,WeatherDisplay:10.37,2013-03-14 20:44:00,
2013-03-14 13:49:00,50.0,44.1,29.74,ENE,76,8.1,8.1,80,0.00,CLR,CLR,0.04,0.0,WeatherDisplay:10.37,2013-03-14 20:49:00,
2013-03-14 13:55:00,50.0,44.1,29.74,ENE,76,8.1,8.1,80,0.00,CLR,CLR,0.04,0.0,WeatherDisplay:10.37,2013-03-14 20:55:00,
2013-03-14 14:00:00,50.0,44.1,29.74,ENE,76,8.1,8.1,80,0.00,CLR,CLR,0.04,0.0,WeatherDisplay:10.37,2013-03-14 21:00:00,
2013-03-14 14:05:00,50.0,44.1,29.74,ENE,76,8.1,8.1,80,0.00,CLR,CLR,0.04,0.0,WeatherDisplay:10.37,2013-03-14 21:05:00,
2013-03-14 14:10:00,50.0,44.1,29.74,ENE,76,8.1,8.1,80,0.00,CLR,CLR,0.04,0.0,WeatherDisplay:10.37,2013-03-14 21:10:00,
2013-03-14 14:15:00,50.0,44.1,29.74,ENE,76,8.1,8.1,80,0.00,CLR,CLR,0.04,0.0,WeatherDisplay:10.37,2013-03-14 21:15:00,
2013-03-14 14:20:00,50.0,44.1,29.74,ENE,76,8.1,8.1,80,0.00,CLR,CLR,0.04,0.0,WeatherDisplay:10.37,2013-03-14 21:20:00,
2013-03-14 14:25:00,50.0,44.1,29.74,ENE,76,8.1,8.1,80,0.00,CLR,CLR,0.04,0.0,WeatherDisplay:10.37,2013-03-14 21:25:00,
2013-03-14 14:30:00,49.5,43.9,29.71,ENE,76,8.1,8.1,81,0.00,CLR,CLR,0.04,0.0,WeatherDisplay:10.37,2013-03-14 21:30:00,
2013-03-14 14:35:00,49.5,43.9,29.71,ENE,76,8.1,8.1,81,0.00,CLR,CLR,0.04,0.0,WeatherDisplay:10.37,2013-03-14 21:35:00,
2013-03-14 14:40:00,49.5,43.9,29.71,ENE,76,8.1,8.1,81,0.00,CLR,CLR,0.04,0.0,WeatherDisplay:10.37,2013-03-14 21:40:00,
2013-03-14 14:45:00,49.5,43.9,29.71,ENE,76,8.1,8.1,81,0.00,CLR,CLR,0.04,0.0,WeatherDisplay:10.37,2013-03-14 21:45:00,
2013-03-14 14:50:00,49.5,43.9,29.71,ENE,76,8.1,8.1,81,0.00,CLR,CLR,0.04,0.0,WeatherDisplay:10.37,2013-03-14 21:50:00,
2013-03-14 14:55:00,49.5,43.9,29.71,ENE,76,8.1,8.1,81,0.00,CLR,CLR,0.04,0.0,WeatherDisplay:10.37,2013-03-14 21:55:00,
2013-03-14 15:00:00,49.5,43.9,29.71,ENE,76,8.1,8.1,81,0.00,CLR,CLR,0.04,0.0,WeatherDisplay:10.37,2013-03-14 22:00:00,
2013-03-14 15:13:00,44.4,27.4,29.71,North,0,8.1,0.0,51,0.00,CLR,CLR,0.04,0.0,WeatherDisplay:10.37,2013-03-14 22:13:00,
2013-03-14 15:18:00,44.4,27.4,29.71,North,0,8.1,0.0,51,0.00,CLR,CLR,0.04,0.0,WeatherDisplay:10.37,2013-03-14 22:18:00,
2013-03-14 15:24:00,44.4,27.4,29.71,North,0,8.1,0.0,51,0.00,CLR,CLR,0.04,0.0,WeatherDisplay:10.37,2013-03-14 22:24:00,
2013-03-14 15:29:00,44.4,27.4,29.71,North,0,8.1,0.0,51,0.00,CLR,CLR,0.04,0.0,WeatherDisplay:10.37,2013-03-14 22:29:00,
2013-03-14 15:34:00,44.4,27.4,29.71,North,0,8.1,0.0,51,0.00,CLR,CLR,0.04,0.0,WeatherDisplay:10.37,2013-03-14 22:34:00,
2013-03-14 15:39:00,49.1,43.8,29.71,North,0,8.1,0.0,82,0.00,CLR,CLR,0.04,0.0,WeatherDisplay:10.37,2013-03-14 22:39:00,
2013-03-14 15:44:00,49.1,43.8,29.71,East,86,8.1,8.1,82,0.00,CLR,CLR,0.04,0.0,WeatherDisplay:10.37,2013-03-14 22:44:00,
2013-03-14 15:49:00,49.1,43.8,29.71,East,86,8.1,8.1,82,0.00,CLR,CLR,0.04,0.0,WeatherDisplay:10.37,2013-03-14 22:49:00,
2013-03-14 15:54:00,49.1,43.8,29.71,East,86,8.1,8.1,82,0.00,CLR,CLR,0.04,0.0,WeatherDisplay:10.37,2013-03-14 22:54:00,
2013-03-14 15:59:00,49.1,43.8,29.71,East,92,8.1,8.1,82,0.00,CLR,CLR,0.04,0.0,WeatherDisplay:10.37,2013-03-14 22:59:00,
2013-03-14 16:04:00,49.1,43.8,29.71,East,92,8.1,8.1,82,0.00,CLR,CLR,0.04,0.0,WeatherDisplay:10.37,2013-03-14 23:04:00,
2013-03-14 16:10:00,49.1,43.8,29.71,East,100,8.1,8.1,82,0.00,CLR,CLR,0.04,0.0,WeatherDisplay:10.37,2013-03-14 23:10:00,
2013-03-14 16:15:00,49.1,43.8,29.71,East,100,8.1,8.1,82,0.00,CLR,CLR,0.04,0.0,WeatherDisplay:10.37,2013-03-14 23:15:00,
2013-03-14 16:20:00,49.1,43.8,29.71,East,100,8.1,8.1,82,0.00,CLR,CLR,0.08,0.0,WeatherDisplay:10.37,2013-03-14 23:20:00,
2013-03-14 16:25:00,49.1,43.8,29.71,East,94,8.1,8.1,82,0.00,CLR,CLR,0.16,0.0,WeatherDisplay:10.37,2013-03-14 23:25:00,
2013-03-14 16:31:00,49.1,43.8,29.71,East,94,8.1,8.1,82,0.00,CLR,CLR,0.16,0.0,WeatherDisplay:10.37,2013-03-14 23:31:00,
2013-03-14 16:36:00,49.1,43.8,29.71,East,81,8.1,0.0,82,0.00,CLR,CLR,0.16,0.0,WeatherDisplay:10.37,2013-03-14 23:36:00,
2013-03-14 16:41:00,49.1,43.8,29.71,East,81,8.1,0.0,82,0.00,CLR,CLR,0.16,0.0,WeatherDisplay:10.37,2013-03-14 23:41:00,
2013-03-14 16:46:00,49.1,43.8,29.71,ENE,75,8.1,8.1,82,0.00,CLR,CLR,0.16,0.0,WeatherDisplay:10.37,2013-03-14 23:46:00,
2013-03-14 16:51:00,49.1,43.8,29.71,ENE,75,8.1,8.1,82,0.00,CLR,CLR,0.16,0.0,WeatherDisplay:10.37,2013-03-14 23:51:00,
2013-03-14 16:56:00,49.1,43.8,29.71,ENE,75,8.1,8.1,82,0.00,CLR,CLR,0.16,0.0,WeatherDisplay:10.37,2013-03-14 23:56:00,
2013-03-14 17:02:00,49.1,43.8,29.71,ENE,75,8.1,8.1,82,0.00,CLR,CLR,0.16,0.0,WeatherDisplay:10.37,2013-03-15 00:02:00,
2013-03-14 17:07:00,49.1,43.8,29.71,ENE,75,8.1,8.1,82,0.00,CLR,CLR,0.16,0.0,WeatherDisplay:10.37,2013-03-15 00:07:00,
2013-03-14 17:12:00,49.1,43.8,29.71,East,81,8.1,8.1,82,0.00,CLR,CLR,0.16,0.0,WeatherDisplay:10.37,2013-03-15 00:12:00,
2013-03-14 17:17:00,49.1,43.8,29.71,East,81,8.1,8.1,82,0.00,CLR,CLR,0.16,0.0,WeatherDisplay:10.37,2013-03-15 00:17:00,
2013-03-14 17:22:00,49.1,43.8,29.71,East,81,8.1,8.1,82,0.00,CLR,CLR,0.16,0.0,WeatherDisplay:10.37,2013-03-15 00:22:00,
2013-03-14 17:27:00,49.1,43.8,29.71,East,81,8.1,8.1,82,0.00,CLR,CLR,0.16,0.0,WeatherDisplay:10.37,2013-03-15 00:27:00,
2013-03-14 17:32:00,49.1,43.8,29.71,East,81,8.1,8.1,82,0.00,CLR,CLR,0.16,0.0,WeatherDisplay:10.37,2013-03-15 00:32:00,
2013-03-14 17:37:00,49.1,43.8,29.71,NNE,13,8.1,8.1,82,0.00,CLR,CLR,0.16,0.0,WeatherDisplay:10.37,2013-03-15 00:37:00,
2013-03-14 17:42:00,49.1,43.8,29.71,NNE,13,8.1,8.1,82,0.00,CLR,CLR,0.16,0.0,WeatherDisplay:10.37,2013-03-15 00:42:00,
2013-03-14 17:47:00,49.1,43.8,29.71,NNE,13,8.1,8.1,82,0.00,CLR,CLR,0.16,0.0,WeatherDisplay:10.37,2013-03-15 00:47:00,
2013-03-14 17:53:00,49.1,43.8,29.71,NNE,13,8.1,8.1,82,0.00,CLR,CLR,0.16,0.0,WeatherDisplay:10.37,2013-03-15 00:53:00,
2013-03-14 17:58:00,49.1,43.8,29.71,NNE,13,8.1,8.1,82,0.00,CLR,CLR,0.16,0.0,WeatherDisplay:10.37,2013-03-15 00:58:00,
2013-03-14 18:03:00,49.1,43.8,29.71,NNE,13,8.1,8.1,82,0.00,CLR,CLR,0.31,0.0,WeatherDisplay:10.37,2013-03-15 01:03:00,
2013-03-14 18:08:00,49.1,43.8,29.71,NNE,13,8.1,8.1,82,0.00,CLR,CLR,0.31,0.0,WeatherDisplay:10.37,2013-03-15 01:08:00,
2013-03-14 18:13:00,49.1,43.8,29.71,NNE,13,8.1,8.1,82,0.00,CLR,CLR,0.31,0.0,WeatherDisplay:10.37,2013-03-15 01:13:00,
2013-03-14 18:18:00,49.1,43.8,29.71,NNE,13,8.1,8.1,82,0.00,CLR,CLR,0.31,0.0,WeatherDisplay:10.37,2013-03-15 01:18:00,
2013-03-14 18:23:00,48.7,43.8,29.71,NNE,13,8.1,8.1,83,0.00,CLR,CLR,0.31,0.0,WeatherDisplay:10.37,2013-03-15 01:23:00,
2013-03-14 18:28:00,48.7,43.8,29.71,NNE,13,8.1,8.1,83,0.00,CLR,CLR,0.31,0.0,WeatherDisplay:10.37,2013-03-15 01:28:00,
2013-03-14 18:33:00,48.7,43.8,29.71,NNE,13,8.1,8.1,83,0.00,CLR,CLR,0.31,0.0,WeatherDisplay:10.37,2013-03-15 01:33:00,
2013-03-14 18:38:00,48.7,43.8,29.71,NNE,13,8.1,8.1,83,0.00,CLR,CLR,0.31,0.0,WeatherDisplay:10.37,2013-03-15 01:38:00,
2013-03-14 18:44:00,48.7,43.8,29.71,NNE,13,8.1,8.1,83,0.00,CLR,CLR,0.31,0.0,WeatherDisplay:10.37,2013-03-15 01:44:00,
2013-03-14 18:49:00,48.7,43.8,29.71,NE,41,8.1,0.0,83,0.00,CLR,CLR,0.31,0.0,WeatherDisplay:10.37,2013-03-15 01:49:00,
2013-03-14 18:54:00,48.7,43.8,29.71,NE,41,8.1,0.0,83,0.00,CLR,CLR,0.31,0.0,WeatherDisplay:10.37,2013-03-15 01:54:00,
2013-03-14 19:00:00,48.7,43.8,29.71,NE,41,8.1,0.0,83,0.00,CLR,CLR,0.31,0.0,WeatherDisplay:10.37,2013-03-15 02:00:00,
2013-03-14 19:05:00,48.7,43.8,29.71,NE,41,8.1,0.0,83,0.00,CLR,CLR,0.31,0.0,WeatherDisplay:10.37,2013-03-15 02:05:00,
2013-03-14 19:10:00,48.7,43.8,29.71,NE,41,8.1,0.0,83,0.00,CLR,CLR,0.31,0.0,WeatherDisplay:10.37,2013-03-15 02:10:00,
2013-03-14 19:15:00,48.7,43.8,29.74,NE,41,8.1,0.0,83,0.00,CLR,CLR,0.31,0.0,WeatherDisplay:10.37,2013-03-15 02:15:00,
2013-03-14 19:20:00,48.7,43.8,29.74,NE,41,8.1,0.0,83,0.00,CLR,CLR,0.31,0.0,WeatherDisplay:10.37,2013-03-15 02:20:00,
2013-03-14 19:25:00,48.7,43.8,29.74,NE,43,8.1,0.0,83,0.00,CLR,CLR,0.31,0.0,WeatherDisplay:10.37,2013-03-15 02:25:00,
2013-03-14 19:30:00,48.7,43.8,29.74,NE,43,8.1,0.0,83,0.00,CLR,CLR,0.31,0.0,WeatherDisplay:10.37,2013-03-15 02:30:00,
2013-03-14 19:35:00,48.7,43.8,29.74,NE,43,8.1,0.0,83,0.00,CLR,CLR,0.31,0.0,WeatherDisplay:10.37,2013-03-15 02:35:00,
2013-03-14 19:40:00,48.7,43.8,29.74,NE,43,8.1,0.0,83,0.00,CLR,CLR,0.31,0.0,WeatherDisplay:10.37,2013-03-15 02:40:00,
2013-03-14 19:45:00,48.7,43.8,29.74,NE,43,8.1,0.0,83,0.00,CLR,CLR,0.31,0.0,WeatherDisplay:10.37,2013-03-15 02:45:00,
2013-03-14 19:50:00,48.7,43.8,29.74,NE,43,8.1,0.0,83,0.00,CLR,CLR,0.31,0.0,WeatherDisplay:10.37,2013-03-15 02:50:00,
2013-03-14 19:55:00,48.7,43.8,29.74,NE,43,8.1,0.0,83,0.00,CLR,CLR,0.31,0.0,WeatherDisplay:10.37,2013-03-15 02:55:00,
2013-03-14 20:01:00,48.7,43.8,29.74,NE,43,8.1,0.0,83,0.00,CLR,CLR,0.31,0.0,WeatherDisplay:10.37,2013-03-15 03:01:00,
2013-03-14 20:06:00,48.7,43.8,29.74,ESE,112,8.1,8.1,83,0.00,CLR,CLR,0.31,0.0,WeatherDisplay:10.37,2013-03-15 03:06:00,
2013-03-14 20:11:00,48.7,43.8,29.74,ESE,112,8.1,8.1,83,0.00,CLR,CLR,0.31,0.0,WeatherDisplay:10.37,2013-03-15 03:11:00,
2013-03-14 20:16:00,48.7,43.8,29.74,ESE,112,8.1,8.1,83,0.00,CLR,CLR,0.31,0.0,WeatherDisplay:10.37,2013-03-15 03:16:00,
2013-03-14 20:22:00,48.7,43.8,29.74,ESE,112,8.1,8.1,83,0.00,CLR,CLR,0.31,0.0,WeatherDisplay:10.37,2013-03-15 03:22:00,
2013-03-14 20:27:00,48.7,43.8,29.74,ESE,112,8.1,8.1,83,0.00,CLR,CLR,0.31,0.0,WeatherDisplay:10.37,2013-03-15 03:27:00,
2013-03-14 20:32:00,48.7,43.8,29.74,ENE,72,8.1,8.1,83,0.00,CLR,CLR,0.31,0.0,WeatherDisplay:10.37,2013-03-15 03:32:00,
2013-03-14 20:37:00,48.7,43.8,29.74,ENE,72,8.1,8.1,83,0.00,CLR,CLR,0.39,0.0,WeatherDisplay:10.37,2013-03-15 03:37:00,
2013-03-14 20:42:00,48.7,43.8,29.74,NE,56,8.1,0.0,83,0.00,CLR,CLR,0.39,0.0,WeatherDisplay:10.37,2013-03-15 03:42:00,
2013-03-14 20:47:00,48.7,43.8,29.74,NE,56,8.1,0.0,83,0.00,CLR,CLR,0.39,0.0,WeatherDisplay:10.37,2013-03-15 03:47:00,
2013-03-14 20:52:00,48.7,43.8,29.74,NE,56,8.1,0.0,83,0.00,CLR,CLR,0.39,0.0,WeatherDisplay:10.37,2013-03-15 03:52:00,
2013-03-14 20:57:00,48.7,43.8,29.74,NE,56,8.1,0.0,83,0.00,CLR,CLR,0.39,0.0,WeatherDisplay:10.37,2013-03-15 03:57:00,
2013-03-14 21:00:00,48.7,43.8,29.74,NE,56,8.1,0.0,83,0.00,CLR,CLR,0.39,0.0,WeatherDisplay:10.37,2013-03-15 04:00:00,
2013-03-14 21:01:00,48.7,43.8,29.74,NE,56,8.1,0.0,83,0.00,CLR,CLR,0.39,0.0,WeatherDisplay:10.37,2013-03-15 04:01:00,
2013-03-14 21:02:00,48.7,43.8,29.74,NE,56,8.1,0.0,83,0.00,CLR,CLR,0.39,0.0,WeatherDisplay:10.37,2013-03-15 04:02:00,
2013-03-14 21:07:00,48.7,43.8,29.74,ENE,73,8.1,0.0,83,0.00,CLR,CLR,0.39,0.0,WeatherDisplay:10.37,2013-03-15 04:07:00,
2013-03-14 21:12:00,48.7,43.8,29.74,ENE,73,8.1,0.0,83,0.00,CLR,CLR,0.39,0.0,WeatherDisplay:10.37,2013-03-15 04:12:00,
2013-03-14 21:17:00,48.7,43.8,29.74,ENE,73,8.1,0.0,83,0.00,CLR,CLR,0.39,0.0,WeatherDisplay:10.37,2013-03-15 04:17:00,
2013-03-14 21:23:00,48.7,43.8,29.74,ENE,73,8.1,0.0,83,0.00,CLR,CLR,0.39,0.0,WeatherDisplay:10.37,2013-03-15 04:23:00,
2013-03-14 21:28:00,48.7,43.8,29.74,ENE,73,8.1,0.0,83,0.00,CLR,CLR,0.39,0.0,WeatherDisplay:10.37,2013-03-15 04:28:00,
2013-03-14 21:33:00,48.7,43.8,29.77,East,101,8.1,0.0,83,0.00,CLR,CLR,0.39,0.0,WeatherDisplay:10.37,2013-03-15 04:33:00,
2013-03-14 21:38:00,48.7,43.8,29.77,East,101,8.1,0.0,83,0.00,CLR,CLR,0.39,0.0,WeatherDisplay:10.37,2013-03-15 04:38:00,
2013-03-14 21:43:00,49.1,44.5,29.77,East,101,8.1,0.0,84,0.00,CLR,CLR,0.39,0.0,WeatherDisplay:10.37,2013-03-15 04:43:00,
2013-03-14 21:48:00,49.1,44.5,29.77,East,101,8.1,0.0,84,0.00,CLR,CLR,0.39,0.0,WeatherDisplay:10.37,2013-03-15 04:48:00,
2013-03-14 21:53:00,49.1,44.5,29.77,East,101,8.1,0.0,84,0.00,CLR,CLR,0.39,0.0,WeatherDisplay:10.37,2013-03-15 04:53:00,
2013-03-14 21:58:00,49.1,44.5,29.77,East,101,8.1,0.0,84,0.00,CLR,CLR,0.39,0.0,WeatherDisplay:10.37,2013-03-15 04:58:00,
2013-03-14 22:04:00,49.1,44.5,29.77,East,101,8.1,0.0,84,0.00,CLR,CLR,0.39,0.0,WeatherDisplay:10.37,2013-03-15 05:04:00,
2013-03-14 22:09:00,49.1,44.5,29.77,East,101,8.1,0.0,84,0.00,CLR,CLR,0.39,0.0,WeatherDisplay:10.37,2013-03-15 05:09:00,
2013-03-14 22:14:00,49.1,44.5,29.77,East,101,8.1,0.0,84,0.00,CLR,CLR,0.39,0.0,WeatherDisplay:10.37,2013-03-15 05:14:00,
2013-03-14 22:19:00,49.1,44.5,29.77,SSE,151,8.1,0.0,84,0.00,CLR,CLR,0.39,0.0,WeatherDisplay:10.37,2013-03-15 05:19:00,
2013-03-14 22:24:00,49.1,44.5,29.77,SSE,151,8.1,0.0,84,0.00,CLR,CLR,0.39,0.0,WeatherDisplay:10.37,2013-03-15 05:24:00,
2013-03-14 22:29:00,49.1,44.5,29.80,SSE,151,8.1,0.0,84,0.00,CLR,CLR,0.39,0.0,WeatherDisplay:10.37,2013-03-15 05:29:00,
2013-03-14 22:34:00,49.1,44.5,29.80,NE,41,8.1,0.0,84,0.00,CLR,CLR,0.39,0.0,WeatherDisplay:10.37,2013-03-15 05:34:00,
2013-03-14 22:39:00,49.1,44.5,29.80,East,101,8.1,0.0,84,0.00,CLR,CLR,0.39,0.0,WeatherDisplay:10.37,2013-03-15 05:39:00,
2013-03-14 22:44:00,49.1,44.5,29.80,East,101,8.1,0.0,84,0.00,CLR,CLR,0.39,0.0,WeatherDisplay:10.37,2013-03-15 05:44:00,
2013-03-14 22:49:00,49.1,44.5,29.80,East,101,8.1,0.0,84,0.00,CLR,CLR,0.39,0.0,WeatherDisplay:10.37,2013-03-15 05:49:00,
2013-03-14 22:54:00,49.1,44.5,29.80,East,100,8.1,0.0,84,0.00,CLR,CLR,0.39,0.0,WeatherDisplay:10.37,2013-03-15 05:54:00,
2013-03-14 22:59:00,49.1,44.5,29.80,East,100,8.1,0.0,84,0.00,CLR,CLR,0.39,0.0,WeatherDisplay:10.37,2013-03-15 05:59:00,
2013-03-14 23:04:00,49.1,44.5,29.80,East,100,8.1,0.0,84,0.00,CLR,CLR,0.39,0.0,WeatherDisplay:10.37,2013-03-15 06:04:00,
2013-03-14 23:09:00,49.1,44.5,29.80,East,100,8.1,0.0,84,0.00,CLR,CLR,0.39,0.0,WeatherDisplay:10.37,2013-03-15 06:09:00,
2013-03-14 23:14:00,49.1,44.5,29.80,East,100,8.1,0.0,84,0.00,CLR,CLR,0.39,0.0,WeatherDisplay:10.37,2013-03-15 06:14:00,
2013-03-14 23:19:00,49.1,44.5,29.80,East,100,8.1,0.0,84,0.00,CLR,CLR,0.39,0.0,WeatherDisplay:10.37,2013-03-15 06:19:00,
2013-03-14 23:24:00,49.1,44.5,29.80,East,100,8.1,0.0,84,0.00,CLR,CLR,0.39,0.0,WeatherDisplay:10.37,2013-03-15 06:24:00,
2013-03-14 23:29:00,49.1,44.5,29.83,East,100,8.1,0.0,84,0.00,CLR,CLR,0.39,0.0,WeatherDisplay:10.37,2013-03-15 06:29:00,
2013-03-14 23:34:00,49.1,44.5,29.83,East,100,8.1,0.0,84,0.00,CLR,CLR,0.39,0.0,WeatherDisplay:10.37,2013-03-15 06:34:00,
2013-03-14 23:39:00,49.1,44.5,29.83,East,100,8.1,0.0,84,0.00,CLR,CLR,0.39,0.0,WeatherDisplay:10.37,2013-03-15 06:39:00,
2013-03-14 23:44:00,49.1,44.5,29.83,East,100,8.1,0.0,84,0.00,CLR,CLR,0.39,0.0,WeatherDisplay:10.37,2013-03-15 06:44:00,
2013-03-14 23:49:00,49.1,44.5,29.83,East,100,8.1,0.0,84,0.00,CLR,CLR,0.39,0.0,WeatherDisplay:10.37,2013-03-15 06:49:00,
2013-03-14 23:54:00,49.1,44.5,29.83,East,100,8.1,0.0,84,0.00,CLR,CLR,0.39,0.0,WeatherDisplay:10.37,2013-03-15 06:54:00,
2013-03-14 23:59:00,49.1,44.5,29.83,East,100,8.1,0.0,84,0.00,CLR,CLR,0.39,0.0,WeatherDisplay:10.37,2013-03-15 06:59:00,